Regional Weather Roundup
Issued by NWS

Home | Current Version | Previous Version | Graphics & Text | Print | Product List | Glossary On
Versions: 1 2 3 4 5 6 7 8 9 10 11 12 13 14 15 16 17 18 19 20 21 22 23 24 25 26 27 28 29 30 31 32 33 34 35 36 37 38 39 40 41 42 43 44 45 46 47 48 49 50
000
ASUS44 KMEG 291410
RWRTN
TENNESSEE HOURLY STATE WEATHER ROUNDUP
NATIONAL WEATHER SERVICE MEMPHIS TN
900 AM CDT WED MAR 29 2017

TNZ002-004-019-021-049-052-054-088>092-291500-
WEST TENNESSEE

CITY           SKY/WX    TMP DP  RH WIND       PRES   REMARKS
MEMPHIS INTL   CLOUDY    66  58  75 S10       29.98R
NWS MEMPHIS      N/A     65 N/A N/A MISG        N/A
JACKSON        SUNNY     64  55  72 S6        29.99R
DYERSBURG      PTSUNNY   60  55  83 SE6       30.01R
SOMERVILLE     PTSUNNY   66  57  72 S10       30.00R
BOLIVAR        SUNNY     64  55  72 SE9       29.98R
PARIS          PTSUNNY   55  54  94 E9        30.01R
HUNTINGDON     CLOUDY    59  55  88 E7        30.00R
SAVANNAH       SUNNY     66  55  68 SE5       29.98R HAZE
$$

TNZ008-025-027-028-033-062-065-066-291500-
NORTH MIDDLE TENNESSEE

CITY           SKY/WX    TMP DP  RH WIND       PRES   REMARKS
NASHVILLE      MOSUNNY   60  55  83 E9        30.05F
PORTLAND       PTSUNNY   57  54  88 E7        30.06F
CLARKSVILLE    SUNNY     58  53  84 E10       30.04S
COOKEVILLE     SUNNY     57  54  88 E6        30.05F
GALLATIN       SUNNY     61  55  82 E7        30.08F
CROSSVILLE     FOG       52  52 100 VRB5      30.09S VSB 1/4
$$

TNZ061-075-076-078-094-096-097-291500-
SOUTH MIDDLE TENNESSEE

CITY           SKY/WX    TMP DP  RH WIND       PRES   REMARKS
FAYETTEVILLE   SUNNY     63  54  72 E5        30.03F
TULLAHOMA      SUNNY     61  52  72 SE5         N/A
WINCHESTER     SUNNY     64  54  68 CALM      30.05S
MCMINNVILLE    SUNNY     57  55  94 E5        30.05S
COLUMBIA       SUNNY     61  61 100 E6        30.01F
SHELBYVILLE    MOSUNNY   63  55  77 SE3       30.05S
$$

TNZ017-018-042-046-047-291500-
NORTHEAST TENNESSEE

CITY           SKY/WX    TMP DP  RH WIND       PRES   REMARKS
TRI CITIES     MOSUNNY   59  53  80 S3        30.11R
ELIZABETHTON   SUNNY     57  52  82 CALM      30.10S
$$

TNZ012-013-036-069-073-074-291500-
CENTRAL EAST TENNESSEE

CITY           SKY/WX    TMP DP  RH WIND       PRES   REMARKS
KNOXVILLE      MOSUNNY   59  52  77 NE6       30.07S
OAK RIDGE      SUNNY     63  53  70 NE8       30.09S
DOWNTOWN KNOXV SUNNY     61  54  77 SE5       30.09S
GATLINBURG     SUNNY     55  52  88 CALM      30.08S
MORRISTOWN     SUNNY     61  54  77 NE8G15    30.08S
JACKSBORO      SUNNY     59  54  82 CALM      30.12S
$$

TNZ083-085-099-291500-
SOUTHEAST TENNESSEE

CITY           SKY/WX    TMP DP  RH WIND       PRES   REMARKS
CHATTANOOGA    MOSUNNY   62  53  72 N5        30.07S
$$

SKY/WX REPORTED AS FAIR MEANS FEW OR NO CLOUDS BELOW
12 THOUSAND FEET.




USA.gov is the U.S. government's official web portal to all federal, state and local government web resources and services.